This is the latest recevied weather packets stored in our database for station/object ANJALA. If no packets are shown the sender has not sent any weather packets the latest 10 day(s).
| Time | Temp. | Humidity | Pressure | Rain* | Wind** | Luminosity | Snow |
|---|---|---|---|---|---|---|---|
| 1777824426 | 15.56° C | 51% | - | 0 mm | - | - | - |
| 1777823226 | 15° C | 53% | - | 0 mm | - | - | - |
| 1777822026 | 16.11° C | 50% | - | 0 mm | - | - | - |
| 1777820826 | 15.56° C | 50% | - | 0 mm | - | - | - |
| 1777819625 | 16.11° C | 47% | - | 0 mm | - | - | - |
| 1777818425 | 16.67° C | 49% | - | 0 mm | - | - | - |
| 1777817225 | 15.56° C | 51% | - | 0 mm | - | - | - |
| 1777816025 | 16.67° C | 52% | - | 0 mm | - | - | - |
| 1777814825 | 15.56° C | 51% | - | 0 mm | - | - | - |
| 1777813625 | 15.56° C | 53% | - | 0 mm | - | - | - |
| 1777812425 | 15.56° C | 53% | - | 0 mm | - | - | - |
| 1777811225 | 15.56° C | 54% | - | 0 mm | - | - | - |
| 1777810025 | 15.56° C | 54% | - | 0 mm | - | - | - |
| 1777808825 | 16.67° C | 51% | - | 0 mm | - | - | - |
| 1777807625 | 16.11° C | 52% | - | 0 mm | - | - | - |
| 1777806425 | 15° C | 54% | - | 0 mm | - | - | - |
| 1777805230 | 15° C | 54% | - | 0 mm | - | - | - |
| 1777804025 | 14.44° C | 54% | - | 0 mm | - | - | - |
| 1777802825 | 14.44° C | 55% | - | 0 mm | - | - | - |
| 1777801625 | 13.89° C | 56% | - | 0 mm | - | - | - |
| 1777800425 | 13.89° C | 57% | - | 0 mm | - | - | - |
| 1777799225 | 13.33° C | 58% | - | 0 mm | - | - | - |
| 1777798025 | 12.78° C | 59% | - | 0 mm | - | - | - |
| 1777796824 | 12.78° C | 60% | - | 0 mm | - | - | - |
| 1777795624 | 12.22° C | 63% | - | 0 mm | - | - | - |
* Rain latest hour (hover to see other rain measurements)
** Current wind speed in m/s (hover to see current wind gust speed)